MSC Armonia — H8EW — position and weather

sailwx.info

Track history (hours):
 
Tides and Currents Weather Stations Pressure Air Temp Water Temp Dewpoint Dewpoint Depression Visibility Wind Speed Wind Dir Waves Ship Positions

MSC Armonia

Operator: Mediterranean Shipping Company

Last reported at 2017-Apr-24 19:33 UTC. Time now 2017-Apr-24 23:05 UTC.
Position N 39°23' E 006°09'.

Length 275 m; draft 6.8 m.

Type: Ship. MMSI: 357281000.

Date/timePositionNaut miles runAvg speedWind from/ knotsBaromVisibWave heightAir tempDewpointWater temp
2017-Apr-24 19:33N 39°23' E 006°09'116.9
2017-Apr-24 19:30N 39°23' E 006°08'6616.6
2017-Apr-24 15:32N 39°44' E 004°47'171 8.0
2017-Apr-23 18:03N 42°35' E 005°01'116.7
2017-Apr-23 18:00N 42°36' E 005°01'3216.7
2017-Apr-23 16:03N 43°08' E 005°11'117.0
2017-Apr-23 16:00N 43°09' E 005°11'816.3
2017-Apr-23 15:30N 43°16' E 005°15'6 0.6
2017-Apr-23 05:26N 43°21' E 005°19'3 6.5
2017-Apr-23 05:00N 43°19' E 005°17'611.3
2017-Apr-23 04:30N 43°13' E 005°17'7714.3
2017-Apr-22 23:07N 43°13' E 007°03'215.9
2017-Apr-22 23:00N 43°13' E 007°05'815.8
2017-Apr-22 22:30N 43°17' E 007°15'815.7
2017-Apr-22 22:00N 43°21' E 007°24'815.3
2017-Apr-22 21:30N 43°25' E 007°33'815.1
2017-Apr-22 21:00N 43°29' E 007°42'715.2
2017-Apr-22 20:31N 43°32' E 007°51'815.2
2017-Apr-22 20:01N 43°37' E 008°00'3315.8
2017-Apr-22 17:56N 44°01' E 008°31'716.2
2017-Apr-22 17:30N 44°06' E 008°37'816.3
2017-Apr-22 17:00N 44°12' E 008°44'816.6
2017-Apr-22 16:30N 44°18' E 008°52'612.1
2017-Apr-22 16:00N 44°24' E 008°55'1 1.5
2017-Apr-22 15:30N 44°25' E 008°55'0 0.0
2017-Apr-22 15:00N 44°25' E 008°55'0 0.0
2017-Apr-22 14:30N 44°25' E 008°55'0 0.0
2017-Apr-22 13:30N 44°25' E 008°55'0 0.0
2017-Apr-22 13:00N 44°25' E 008°55'0 0.0
2017-Apr-22 12:30N 44°25' E 008°55'0 0.0
2017-Apr-22 12:00N 44°25' E 008°55'0 0.0
2017-Apr-22 11:30N 44°25' E 008°55'0 0.0
2017-Apr-22 11:00N 44°25' E 008°55'0 0.0
2017-Apr-22 10:30N 44°25' E 008°55'0 0.0
2017-Apr-22 10:00N 44°25' E 008°55'0 0.0
2017-Apr-22 09:30N 44°25' E 008°55'0 0.0
2017-Apr-22 09:00N 44°25' E 008°55'0 0.0
2017-Apr-22 08:30N 44°25' E 008°55'0 0.0
2017-Apr-22 08:00N 44°25' E 008°55'0 0.0
2017-Apr-22 07:30N 44°25' E 008°55'0 0.0
2017-Apr-22 07:00N 44°25' E 008°55'0 0.6
2017-Apr-22 06:31N 44°24' E 008°55'3 6.5
2017-Apr-22 06:00N 44°22' E 008°58'918.8
2017-Apr-22 05:30N 44°13' E 009°02'1019.3
2017-Apr-22 05:00N 44°04' E 009°07'1019.3
2017-Apr-22 04:30N 43°55' E 009°12'1019.4
2017-Apr-22 04:00N 43°46' E 009°17'1019.3
2017-Apr-22 03:30N 43°37' E 009°21'919.0
2017-Apr-22 03:01N 43°28' E 009°26'1019.0
2017-Apr-22 02:30N 43°19' E 009°30'38312.1
2017-Apr-20 18:45N 38°39' E 015°16'415.7
2017-Apr-20 18:30N 38°36' E 015°20'816.1
2017-Apr-20 17:59N 38°30' E 015°27'816.3
2017-Apr-20 17:30N 38°24' E 015°34'816.3
2017-Apr-20 17:01N 38°19' E 015°41'612.5
2017-Apr-20 16:31N 38°13' E 015°37'3 6.0
2017-Apr-20 15:58N 38°12' E 015°33'0 0.0
2017-Apr-20 15:28N 38°12' E 015°33'0 0.0
2017-Apr-20 14:58N 38°12' E 015°33'0 0.0
2017-Apr-20 14:28N 38°12' E 015°33'0 0.0
2017-Apr-20 13:28N 38°12' E 015°33'0 0.0
2017-Apr-20 12:58N 38°12' E 015°33'0 0.0
2017-Apr-20 12:28N 38°12' E 015°33'0 0.0
2017-Apr-20 11:58N 38°12' E 015°33'0 0.0
2017-Apr-20 11:28N 38°12' E 015°33'0 0.0
2017-Apr-20 10:58N 38°12' E 015°33'0 0.0
2017-Apr-20 10:28N 38°12' E 015°33'0 0.0
2017-Apr-20 09:58N 38°12' E 015°33'0 0.0
2017-Apr-20 09:28N 38°12' E 015°33'0 0.0
2017-Apr-20 08:58N 38°12' E 015°33'0 0.0
2017-Apr-20 08:28N 38°12' E 015°33'0 0.0
2017-Apr-20 07:55N 38°12' E 015°33'0 0.0
2017-Apr-20 07:28N 38°12' E 015°33'0 0.0
2017-Apr-20 06:58N 38°12' E 015°33'0 0.0
2017-Apr-20 06:28N 38°12' E 015°33'0 0.1
2017-Apr-20 05:58N 38°12' E 015°34'3 6.2
2017-Apr-20 05:31N 38°10' E 015°37'612.8
2017-Apr-20 05:00N 38°04' E 015°36'714.6
2017-Apr-20 04:30N 37°57' E 015°35'612.0
2017-Apr-20 04:01N 37°51' E 015°34'11713.0
2017-Apr-19 19:02N 36°02' E 014°40'116.2
2017-Apr-19 19:00N 36°02' E 014°40'816.2
2017-Apr-19 18:30N 35°56' E 014°33'2 0.2
2017-Apr-19 10:36N 35°54' E 014°32'1 9.0
2017-Apr-19 10:30N 35°55' E 014°33'611.0
2017-Apr-19 10:00N 35°60' E 014°30'815.2
2017-Apr-19 09:30N 36°06' E 014°23'817.2
2017-Apr-19 09:01N 36°12' E 014°17'917.3
2017-Apr-19 08:30N 36°19' E 014°09'29615.9
2017-Apr-18 13:56N 39°12' E 009°06'0 0.0
2017-Apr-18 13:29N 39°12' E 009°06'0 0.0
2017-Apr-18 12:59N 39°12' E 009°06'0 0.0
2017-Apr-18 12:29N 39°12' E 009°06'0 0.0
2017-Apr-18 11:59N 39°12' E 009°06'0 0.0
2017-Apr-18 11:29N 39°12' E 009°06'0 0.0
2017-Apr-18 10:59N 39°12' E 009°06'0 0.0
2017-Apr-18 10:29N 39°12' E 009°06'0 0.0
2017-Apr-18 09:59N 39°12' E 009°06'0 0.0
2017-Apr-18 09:29N 39°12' E 009°06'0 0.0
2017-Apr-18 08:59N 39°12' E 009°06'0 0.0
2017-Apr-18 08:29N 39°12' E 009°06'0 0.0
2017-Apr-18 07:59N 39°12' E 009°06'1 2.8
2017-Apr-18 07:30N 39°11' E 009°07'5 9.7
2017-Apr-18 06:59N 39°06' E 009°09'5 9.6
2017-Apr-18 06:30N 39°02' E 009°07'511.0
2017-Apr-18 06:00N 38°58' E 009°02'713.1
2017-Apr-18 05:30N 38°53' E 008°56'299 7.9
2017-Apr-16 15:36N 42°58' E 005°08'916.8
2017-Apr-16 15:02N 43°07' E 005°10'116.4
2017-Apr-16 15:01N 43°07' E 005°11'816.6
2017-Apr-16 14:30N 43°15' E 005°15'3 0.3
2017-Apr-16 04:27N 43°18' E 005°15'410.1
2017-Apr-16 04:00N 43°14' E 005°16'7713.1
2017-Apr-15 22:08N 43°13' E 007°02'319.3
2017-Apr-15 22:00N 43°14' E 007°05'1019.4
2017-Apr-15 21:30N 43°19' E 007°17'1020.1
2017-Apr-15 21:00N 43°24' E 007°29'1020.2
2017-Apr-15 20:30N 43°29' E 007°41'1020.1
2017-Apr-15 20:00N 43°33' E 007°53'4419.4
2017-Apr-15 17:44N 44°04' E 008°37'417.2
2017-Apr-15 17:29N 44°08' E 008°40'817.0
2017-Apr-15 17:00N 44°14' E 008°47'816.7
2017-Apr-15 16:30N 44°21' E 008°54'4 8.1
2017-Apr-15 16:00N 44°25' E 008°55'0 0.0
2017-Apr-15 15:18N 44°25' E 008°55'0 0.0
2017-Apr-15 14:51N 44°25' E 008°55'0 0.0
2017-Apr-15 14:24N 44°25' E 008°55'0 0.0
2017-Apr-15 13:24N 44°25' E 008°55'0 0.0
2017-Apr-15 12:54N 44°25' E 008°55'0 0.0
2017-Apr-15 12:24N 44°25' E 008°55'0 0.0
2017-Apr-15 11:54N 44°25' E 008°55'0 0.0
2017-Apr-15 11:24N 44°25' E 008°55'0 0.0
2017-Apr-15 10:57N 44°25' E 008°55'0 0.0
2017-Apr-15 10:27N 44°25' E 008°55'0 0.0
2017-Apr-15 09:57N 44°25' E 008°55'0 0.0
2017-Apr-15 09:27N 44°25' E 008°55'0 0.0
2017-Apr-15 09:00N 44°25' E 008°55'0 0.0
2017-Apr-15 08:30N 44°25' E 008°55'0 0.0
2017-Apr-15 07:57N 44°25' E 008°55'0 0.0
2017-Apr-15 07:30N 44°25' E 008°55'0 0.0
2017-Apr-15 06:57N 44°25' E 008°55'0 0.2
2017-Apr-15 06:30N 44°25' E 008°55'2 4.7
2017-Apr-15 06:00N 44°23' E 008°57'613.1
2017-Apr-15 05:30N 44°17' E 009°01'1019.4
2017-Apr-15 05:00N 44°08' E 009°05'1019.3
2017-Apr-15 04:30N 43°59' E 009°10'1019.5
2017-Apr-15 04:00N 43°50' E 009°15'1019.5
2017-Apr-15 03:30N 43°40' E 009°19'1019.4
2017-Apr-15 03:00N 43°31' E 009°24'918.9
2017-Apr-15 02:30N 43°23' E 009°28'918.7
2017-Apr-15 02:00N 43°14' E 009°33'  
Track history (hours):
 
Tides and Currents Weather Stations Pressure Air Temp Water Temp Dewpoint Dewpoint Depression Visibility Wind Speed Wind Dir Waves Ship Positions

MSC Armonia

Operator: Mediterranean Shipping Company

Last reported at 2017-Apr-24 19:33 UTC. Time now 2017-Apr-24 23:05 UTC.
Position N 39°23' E 006°09'.

Length 275 m; draft 6.8 m.

Type: Ship. MMSI: 357281000.

Date/timePositionNaut miles runAvg speedWind from/ knotsBaromVisibWave heightAir tempDewpointWater temp
2017-Apr-24 19:33N 39°23' E 006°09'116.9
2017-Apr-24 19:30N 39°23' E 006°08'6616.6
2017-Apr-24 15:32N 39°44' E 004°47'171 8.0
2017-Apr-23 18:03N 42°35' E 005°01'116.7
2017-Apr-23 18:00N 42°36' E 005°01'3216.7
2017-Apr-23 16:03N 43°08' E 005°11'117.0
2017-Apr-23 16:00N 43°09' E 005°11'816.3
2017-Apr-23 15:30N 43°16' E 005°15'6 0.6
2017-Apr-23 05:26N 43°21' E 005°19'3 6.5
2017-Apr-23 05:00N 43°19' E 005°17'611.3
2017-Apr-23 04:30N 43°13' E 005°17'7714.3
2017-Apr-22 23:07N 43°13' E 007°03'215.9
2017-Apr-22 23:00N 43°13' E 007°05'815.8
2017-Apr-22 22:30N 43°17' E 007°15'815.7
2017-Apr-22 22:00N 43°21' E 007°24'815.3
2017-Apr-22 21:30N 43°25' E 007°33'815.1
2017-Apr-22 21:00N 43°29' E 007°42'715.2
2017-Apr-22 20:31N 43°32' E 007°51'815.2
2017-Apr-22 20:01N 43°37' E 008°00'3315.8
2017-Apr-22 17:56N 44°01' E 008°31'716.2
2017-Apr-22 17:30N 44°06' E 008°37'816.3
2017-Apr-22 17:00N 44°12' E 008°44'816.6
2017-Apr-22 16:30N 44°18' E 008°52'612.1
2017-Apr-22 16:00N 44°24' E 008°55'1 1.5
2017-Apr-22 15:30N 44°25' E 008°55'0 0.0
2017-Apr-22 15:00N 44°25' E 008°55'0 0.0
2017-Apr-22 14:30N 44°25' E 008°55'0 0.0
2017-Apr-22 13:30N 44°25' E 008°55'0 0.0
2017-Apr-22 13:00N 44°25' E 008°55'0 0.0
2017-Apr-22 12:30N 44°25' E 008°55'0 0.0
2017-Apr-22 12:00N 44°25' E 008°55'0 0.0
2017-Apr-22 11:30N 44°25' E 008°55'0 0.0
2017-Apr-22 11:00N 44°25' E 008°55'0 0.0
2017-Apr-22 10:30N 44°25' E 008°55'0 0.0
2017-Apr-22 10:00N 44°25' E 008°55'0 0.0
2017-Apr-22 09:30N 44°25' E 008°55'0 0.0
2017-Apr-22 09:00N 44°25' E 008°55'0 0.0
2017-Apr-22 08:30N 44°25' E 008°55'0 0.0
2017-Apr-22 08:00N 44°25' E 008°55'0 0.0
2017-Apr-22 07:30N 44°25' E 008°55'0 0.0
2017-Apr-22 07:00N 44°25' E 008°55'0 0.6
2017-Apr-22 06:31N 44°24' E 008°55'3 6.5
2017-Apr-22 06:00N 44°22' E 008°58'918.8
2017-Apr-22 05:30N 44°13' E 009°02'1019.3
2017-Apr-22 05:00N 44°04' E 009°07'1019.3
2017-Apr-22 04:30N 43°55' E 009°12'1019.4
2017-Apr-22 04:00N 43°46' E 009°17'1019.3
2017-Apr-22 03:30N 43°37' E 009°21'919.0
2017-Apr-22 03:01N 43°28' E 009°26'1019.0
2017-Apr-22 02:30N 43°19' E 009°30'38312.1
2017-Apr-20 18:45N 38°39' E 015°16'415.7
2017-Apr-20 18:30N 38°36' E 015°20'816.1
2017-Apr-20 17:59N 38°30' E 015°27'816.3
2017-Apr-20 17:30N 38°24' E 015°34'816.3
2017-Apr-20 17:01N 38°19' E 015°41'612.5
2017-Apr-20 16:31N 38°13' E 015°37'3 6.0
2017-Apr-20 15:58N 38°12' E 015°33'0 0.0
2017-Apr-20 15:28N 38°12' E 015°33'0 0.0
2017-Apr-20 14:58N 38°12' E 015°33'0 0.0
2017-Apr-20 14:28N 38°12' E 015°33'0 0.0
2017-Apr-20 13:28N 38°12' E 015°33'0 0.0
2017-Apr-20 12:58N 38°12' E 015°33'0 0.0
2017-Apr-20 12:28N 38°12' E 015°33'0 0.0
2017-Apr-20 11:58N 38°12' E 015°33'0 0.0
2017-Apr-20 11:28N 38°12' E 015°33'0 0.0
2017-Apr-20 10:58N 38°12' E 015°33'0 0.0
2017-Apr-20 10:28N 38°12' E 015°33'0 0.0
2017-Apr-20 09:58N 38°12' E 015°33'0 0.0
2017-Apr-20 09:28N 38°12' E 015°33'0 0.0
2017-Apr-20 08:58N 38°12' E 015°33'0 0.0
2017-Apr-20 08:28N 38°12' E 015°33'0 0.0
2017-Apr-20 07:55N 38°12' E 015°33'0 0.0
2017-Apr-20 07:28N 38°12' E 015°33'0 0.0
2017-Apr-20 06:58N 38°12' E 015°33'0 0.0
2017-Apr-20 06:28N 38°12' E 015°33'0 0.1
2017-Apr-20 05:58N 38°12' E 015°34'3 6.2
2017-Apr-20 05:31N 38°10' E 015°37'612.8
2017-Apr-20 05:00N 38°04' E 015°36'714.6
2017-Apr-20 04:30N 37°57' E 015°35'612.0
2017-Apr-20 04:01N 37°51' E 015°34'11713.0
2017-Apr-19 19:02N 36°02' E 014°40'116.2
2017-Apr-19 19:00N 36°02' E 014°40'816.2
2017-Apr-19 18:30N 35°56' E 014°33'2 0.2
2017-Apr-19 10:36N 35°54' E 014°32'1 9.0
2017-Apr-19 10:30N 35°55' E 014°33'611.0
2017-Apr-19 10:00N 35°60' E 014°30'815.2
2017-Apr-19 09:30N 36°06' E 014°23'817.2
2017-Apr-19 09:01N 36°12' E 014°17'917.3
2017-Apr-19 08:30N 36°19' E 014°09'29615.9
2017-Apr-18 13:56N 39°12' E 009°06'0 0.0
2017-Apr-18 13:29N 39°12' E 009°06'0 0.0
2017-Apr-18 12:59N 39°12' E 009°06'0 0.0
2017-Apr-18 12:29N 39°12' E 009°06'0 0.0
2017-Apr-18 11:59N 39°12' E 009°06'0 0.0
2017-Apr-18 11:29N 39°12' E 009°06'0 0.0
2017-Apr-18 10:59N 39°12' E 009°06'0 0.0
2017-Apr-18 10:29N 39°12' E 009°06'0 0.0
2017-Apr-18 09:59N 39°12' E 009°06'0 0.0
2017-Apr-18 09:29N 39°12' E 009°06'0 0.0
2017-Apr-18 08:59N 39°12' E 009°06'0 0.0
2017-Apr-18 08:29N 39°12' E 009°06'0 0.0
2017-Apr-18 07:59N 39°12' E 009°06'1 2.8
2017-Apr-18 07:30N 39°11' E 009°07'5 9.7
2017-Apr-18 06:59N 39°06' E 009°09'5 9.6
2017-Apr-18 06:30N 39°02' E 009°07'511.0
2017-Apr-18 06:00N 38°58' E 009°02'713.1
2017-Apr-18 05:30N 38°53' E 008°56'299 7.9
2017-Apr-16 15:36N 42°58' E 005°08'916.8
2017-Apr-16 15:02N 43°07' E 005°10'116.4
2017-Apr-16 15:01N 43°07' E 005°11'816.6
2017-Apr-16 14:30N 43°15' E 005°15'3 0.3
2017-Apr-16 04:27N 43°18' E 005°15'410.1
2017-Apr-16 04:00N 43°14' E 005°16'7713.1
2017-Apr-15 22:08N 43°13' E 007°02'319.3
2017-Apr-15 22:00N 43°14' E 007°05'1019.4
2017-Apr-15 21:30N 43°19' E 007°17'1020.1
2017-Apr-15 21:00N 43°24' E 007°29'1020.2
2017-Apr-15 20:30N 43°29' E 007°41'1020.1
2017-Apr-15 20:00N 43°33' E 007°53'4419.4
2017-Apr-15 17:44N 44°04' E 008°37'417.2
2017-Apr-15 17:29N 44°08' E 008°40'817.0
2017-Apr-15 17:00N 44°14' E 008°47'816.7
2017-Apr-15 16:30N 44°21' E 008°54'4 8.1
2017-Apr-15 16:00N 44°25' E 008°55'0 0.0
2017-Apr-15 15:18N 44°25' E 008°55'0 0.0
2017-Apr-15 14:51N 44°25' E 008°55'0 0.0
2017-Apr-15 14:24N 44°25' E 008°55'0 0.0
2017-Apr-15 13:24N 44°25' E 008°55'0 0.0
2017-Apr-15 12:54N 44°25' E 008°55'0 0.0
2017-Apr-15 12:24N 44°25' E 008°55'0 0.0
2017-Apr-15 11:54N 44°25' E 008°55'0 0.0
2017-Apr-15 11:24N 44°25' E 008°55'0 0.0
2017-Apr-15 10:57N 44°25' E 008°55'0 0.0
2017-Apr-15 10:27N 44°25' E 008°55'0 0.0
2017-Apr-15 09:57N 44°25' E 008°55'0 0.0
2017-Apr-15 09:27N 44°25' E 008°55'0 0.0
2017-Apr-15 09:00N 44°25' E 008°55'0 0.0
2017-Apr-15 08:30N 44°25' E 008°55'0 0.0
2017-Apr-15 07:57N 44°25' E 008°55'0 0.0
2017-Apr-15 07:30N 44°25' E 008°55'0 0.0
2017-Apr-15 06:57N 44°25' E 008°55'0 0.2
2017-Apr-15 06:30N 44°25' E 008°55'2 4.7
2017-Apr-15 06:00N 44°23' E 008°57'613.1
2017-Apr-15 05:30N 44°17' E 009°01'1019.4
2017-Apr-15 05:00N 44°08' E 009°05'1019.3
2017-Apr-15 04:30N 43°59' E 009°10'1019.5
2017-Apr-15 04:00N 43°50' E 009°15'1019.5
2017-Apr-15 03:30N 43°40' E 009°19'1019.4
2017-Apr-15 03:00N 43°31' E 009°24'918.9
2017-Apr-15 02:30N 43°23' E 009°28'918.7
2017-Apr-15 02:00N 43°14' E 009°33'  

Dump ship's entire track history